Back to catalog

ONEWEB-0504

AliveCommunicationsPO
NORAD 54122·PAYLOAD·🇬🇧 United Kingdom

Launched Oct 22, 2022 from Satish Dhawan Space Centre

Loading…

Next Passes (next 24 hours)

TLE

FreshSource: CelesTrak SupGP

Epoch: Sep 14, 2026, 16:36 UTC

1 54122C 22138K   26257.69184444 -.00002807  00000+0 -70194-2 0  2570
2 54122  87.9114 287.1398 0002145  89.2869  24.5004 13.19730249    13

Track ONEWEB-0504 in real time with AllMySat

Download on the App Store